Regional Weather Roundup
Issued by NWS

Home | Current Version | Previous Version | Text Only | Print | Product List | Glossary Off
Versions: 1 2 3 4 5 6 7 8 9 10 11 12 13 14 15 16 17 18 19 20 21 22 23 24 25 26 27 28 29 30 31 32 33 34 35 36 37 38 39 40 41 42 43 44 45 46 47 48 49 50

000
ASUS43 KTOP 230559
RWRKS

WEATHER ROUNDUP FOR KANSAS
NATIONAL WEATHER SERVICE GOODLAND KS
1200 AM CST THU FEB 23 2017

NOTE:  "FAIR" INDICATES FEW OR NO CLOUDS BELOW 12,000 FEET WITH NO
SIGNIFICANT WEATHER AND/OR OBSTRUCTIONS TO VISIBILITY.

KSZ001>006-013>018-027>032-041>047-230700-
NORTHWEST KANSAS

CITY           SKY/WX    TMP DP  RH WIND       PRES   REMARKS
GOODLAND       CLOUDY    41  22  46 E13       29.67F
6HR MIN TEMP:  36; 6HR MAX TEMP:  60;

HAYS             N/A     51  29  42 NE17      29.68R
HILL CITY      CLOUDY    48  30  49 E13       29.71S
6HR MIN TEMP:  37; 6HR MAX TEMP:  67;

RUSSELL        CLOUDY    50  31  48 NE13      29.67S
6HR MIN TEMP:  47; 6HR MAX TEMP:  68;

$$

KSZ061>065-074>080-084>089-230700-
SOUTHWEST KANSAS

CITY           SKY/WX    TMP DP  RH WIND       PRES   REMARKS
DODGE CITY     MOCLDY    47  31  53 NE8       29.63F
6HR MIN TEMP:  47; 6HR MAX TEMP:  70;

ELKHART          N/A     58  25  28 W10         N/A
GARDEN CITY    CLOUDY    49  27  42 SE6       29.63F
6HR MIN TEMP:  47; 6HR MAX TEMP:  69;

GREAT BEND     PTCLDY    55  33  43 E9        29.66S
LIBERAL        CLOUDY    61  23  23 SW8       29.63F
$$

KSZ066>073-081>083-090>101-230700-
SOUTHEAST KANSAS

CITY           SKY/WX    TMP DP  RH WIND       PRES   REMARKS
CHANUTE        PTCLDY    48  40  73 NW3       29.68F
6HR MIN TEMP:  47; 6HR MAX TEMP:  73;

COFFEYVILLE    CLEAR     54  45  71 CALM      29.66F
6HR MIN TEMP:  54; 6HR MAX TEMP:  69;

HUTCHINSON     CLOUDY    53  33  46 E9        29.64F
6HR MIN TEMP:  51; 6HR MAX TEMP:  71;

MEDICINE LODGE   N/A     47  38  71 CALM      29.63F
NEWTON         PTCLDY    55  44  66 NE8       29.65F
PARSONS        PTCLDY    48  42  80 CALM      29.68F
6HR MIN TEMP:  47; 6HR MAX TEMP:  73;

WICHITA INTL   PTCLDY    54  45  71 E6        29.64F
6HR MIN TEMP:  49; 6HR MAX TEMP:  68;

WICHITA JABRA  MOCLDY    53  46  77 E5        29.65F
6HR MIN TEMP:  51; 6HR MAX TEMP:  68;

WINFIELD       CLEAR     51  43  74 E3        29.65F
6HR MIN TEMP:  47; 6HR MAX TEMP:  65;

$$

KSZ007>012-019>026-033>040-048>060-102>105-230700-
NORTHEAST KANSAS

CITY           SKY/WX    TMP DP  RH WIND       PRES   REMARKS
CONCORDIA      PTCLDY    51  33  50 NE9       29.72F
6HR MIN TEMP:  51; 6HR MAX TEMP:  68;

EMPORIA        CLOUDY    50  41  71 N7        29.68S
6HR MIN TEMP:  48; 6HR MAX TEMP:  70;

LAWRENCE       PTCLDY    43  36  76 CALM      29.73R
6HR MIN TEMP:  40; 6HR MAX TEMP:  69;

MANHATTAN      CLEAR     54  37  52 NE9       29.70F
6HR MIN TEMP:  48; 6HR MAX TEMP:  63;

OLATHE IND     CLEAR     47  36  65 N3        29.72S
6HR MIN TEMP:  46; 6HR MAX TEMP:  69;

OLATHE EXE     PTCLDY    57  38  48 NE7       29.71S
6HR MIN TEMP:  53; 6HR MAX TEMP:  72;

SALINA         MOCLDY    57  34  41 NE12      29.68F
6HR MIN TEMP:  51; 6HR MAX TEMP:  70;

TOPEKA BILLARD PTCLDY    52  40  63 E3        29.73R
6HR MIN TEMP:  47; 6HR MAX TEMP:  69;

TOPEKA FORBES  CLOUDY    54  38  54 NE9       29.72R
6HR MIN TEMP:  44; 6HR MAX TEMP:  66;

$$




USA.gov is the U.S. government's official web portal to all federal, state and local government web resources and services.